CDT,Max TemperatureF,Mean TemperatureF,Min TemperatureF,Max Dew PointF,MeanDew PointF,Min DewpointF,Max Humidity, Mean Humidity, Min Humidity, Max Sea Level PressureIn, Mean Sea Level PressureIn, Min Sea Level PressureIn, Max VisibilityMiles, Mean VisibilityMiles, Min VisibilityMiles, Max Wind SpeedMPH, Mean Wind SpeedMPH, Max Gust SpeedMPH,PrecipitationIn, CloudCover, Events, WindDirDegrees
2012-10-1,77,64,51,55,53,50,100,70,41,29.91,29.86,29.82,10,10,10,15,7,25,0.02,2,Rain,328
2012-10-2,71,62,53,55,51,48,88,68,43,30.00,29.95,29.90,10,10,2,12,6,17,0.00,0,,341
2012-10-3,77,64,51,55,53,48,94,64,44,30.03,29.97,29.93,10,10,5,13,4,21,0.00,0,,171
2012-10-4,77,67,57,68,58,52,88,79,72,30.16,30.10,30.03,10,10,10,14,8,17,0.00,4,Rain,154
2012-10-5,60,53,46,52,47,41,88,83,72,30.21,30.14,30.10,10,10,10,17,9,28,0.00,7,,11
2012-10-6,46,44,41,41,36,32,87,73,57,30.32,30.24,30.19,10,10,10,17,11,24,0.00,7,Rain,34
2012-10-7,53,45,37,37,33,32,87,68,44,30.34,30.28,30.22,10,10,10,12,7,17,0.00,4,Rain,15
2012-10-8,60,46,32,39,36,32,100,73,42,30.25,30.17,30.05,10,10,10,14,4,17,0.00,0,,184
2012-10-9,69,56,44,59,51,39,100,84,64,30.06,29.96,29.86,10,10,7,18,10,25,0.00,3,,157
2012-10-10,62,56,51,55,48,43,100,72,48,30.24,30.16,30.04,10,10,5,15,7,21,0.00,7,,61
2012-10-11,77,68,59,68,62,54,100,88,74,30.17,30.11,30.06,10,9,2,14,9,18,0.00,6,Rain,166
2012-10-12,78,72,66,70,67,64,100,92,74,30.19,30.12,30.07,10,10,10,12,7,16,0.00,4,Rain,160
2012-10-13,77,68,60,70,66,61,100,94,74,30.07,29.93,29.77,10,10,2,22,12,31,0.39,4,Rain-Thunderstorm,169
2012-10-14,73,63,51,61,51,46,100,68,41,30.11,30.00,29.79,10,10,10,13,6,18,0.00,0,,280
2012-10-15,78,63,48,54,50,45,94,63,39,30.11,30.03,29.94,10,10,10,10,5,16,0.00,0,,228
2012-10-16,75,66,57,59,53,48,94,64,47,29.95,29.78,29.63,10,10,10,21,12,26,0.00,0,,176
2012-10-17,77,65,53,64,56,36,100,71,43,29.86,29.61,29.47,10,10,10,22,13,29,0.00,2,,261
2012-10-18,68,55,42,36,33,30,70,45,26,30.01,29.94,29.86,10,10,10,17,6,26,0.00,0,,292
2012-10-19,69,56,44,41,32,28,71,42,25,29.99,29.93,29.87,10,10,10,15,6,23,0.00,0,,288
2012-10-20,80,63,46,64,51,34,88,64,50,29.86,29.80,29.72,10,10,10,16,7,24,0.00,0,,164
2012-10-21,82,73,64,70,68,64,100,85,66,29.85,29.80,29.76,10,9,5,20,12,29,0.00,2,,167
2012-10-22,73,68,64,68,66,61,100,89,69,29.98,29.91,29.83,10,10,10,30,12,38,0.00,3,Rain-Thunderstorm,176
2012-10-23,78,71,64,70,66,64,100,88,69,29.95,29.90,29.85,10,10,7,18,12,24,0.00,4,,178
2012-10-24,75,68,60,68,64,61,100,85,73,29.95,29.88,29.78,10,10,10,20,11,26,0.00,2,,164
2012-10-25,69,56,42,64,51,37,100,79,62,30.18,29.96,29.75,10,10,10,24,15,32,0.00,3,Rain,342
2012-10-26,42,38,35,37,34,32,93,83,70,30.37,30.23,30.17,10,10,10,20,14,33,0.00,2,,8
2012-10-27,,,,,,,,,,,,,,,,,,,,,,
2012-10-28,,,,,,,,,,,,,,,,,,,,,,
2012-10-29,62,53,44,34,32,32,61,43,32,30.18,30.14,30.12,10,10,10,8,5,,0.00,0,,168
2012-10-30,73,56,39,45,39,32,76,54,33,30.11,30.00,29.90,10,10,10,13,5,16,0.00,0,,206
2012-10-31,71,56,42,46,43,39,87,63,38,30.06,30.00,29.91,10,10,5,12,5,,0.00,0,,327